Flag for Ukraine Weather past 2 weeks in Odesa, Ukraine

Now
39 °F

Sunny.


Feels Like: 32 °F
Forecast: 37 / 49 °F
Wind: 13 mph from North

Location: Odesa Airport

Current Time: Apr 21, 2015 at 8:19:31 AM

Latest Report: Apr 21, 2015 at 8:00 AM


Visibility: 10 mi

Pressure: 29.89 "Hg

Humidity: 56%

Dew point: 25 °F

Location of OdesaLocation

Historic Weather in Odesa — Graph

°F

Odesa temperature yesterday

Maximum temperature yesterday: 50 °F (at 3:00 PM)
Minimum temperature yesterday: 37 °F (at 12:00 AM)
Average temperature yesterday: 43 °F

Past Weeks' High & Low Weather Summary

 TemperatureHumidityPressure
High72 °F (Apr 13, 3:30 PM)100% (Apr 6, 7:00 AM)30.33 "Hg (Apr 6, 7:00 AM)
Low30 °F (Apr 21, 5:30 AM)18% (Apr 11, 1:30 PM)29.62 "Hg (Apr 18, 4:30 AM)
Average50 °F62%29.97 "Hg
* Reported Apr 6 7:00 AM — Apr 21 7:00 AM, Odesa, Weather by CustomWeather, © 2015

Note: Actual official high and low records may vary slightly from our data, if they occured in-between our weather recording intervals... More about our weather records

Advertising

Odesa weather history for previous 24 hours

 ConditionsComfort  
Time TempWeatherWind HumidityBarometerVisibility
7:00 AM
Tue, Apr 21
34 °FSunny.8 mph81%29.86 "Hg10 mi
6:30 AM32 °FClear.8 mph87%29.86 "Hg10 mi
6:00 AM32 °FClear.8 mph87%29.83 "Hg10 mi
5:30 AM30 °FClear.3 mph86%29.83 "Hg10 mi
5:00 AM32 °FClear.6 mph80%29.83 "Hg10 mi
4:30 AM32 °FClear.3 mph80%29.83 "Hg10 mi
4:00 AM32 °FClear.6 mph80%29.80 "Hg10 mi
3:30 AM37 °FClear.8 mph70%29.80 "Hg10 mi
3:00 AM37 °FClear.6 mph70%29.80 "Hg10 mi
2:30 AM37 °FClear.8 mph75%29.80 "Hg10 mi
2:00 AM39 °FClear.10 mph75%29.77 "Hg10 mi
1:30 AM39 °FClear.10 mph75%29.77 "Hg10 mi
1:00 AM41 °FPassing clouds.10 mph76%29.77 "HgN/A
12:30 AM39 °FPassing clouds.8 mph87%29.77 "HgN/A
12:00 AM39 °FPassing clouds.8 mph87%29.74 "HgN/A
11:30 PM
Mon, Apr 20
39 °FPassing clouds.8 mph87%29.74 "HgN/A
11:00 PM39 °FPassing clouds.8 mph87%29.74 "HgN/A
10:30 PM39 °FPassing clouds.8 mph87%29.74 "HgN/A
10:00 PM41 °FPassing clouds.10 mph81%29.71 "HgN/A
9:30 PM41 °FPassing clouds.10 mph81%29.71 "HgN/A
9:00 PM43 °FPassing clouds.13 mph76%29.68 "HgN/A
8:30 PM45 °FPartly sunny.15 mph71%29.68 "HgN/A
8:00 PM45 °FPartly sunny.13 mph76%29.65 "HgN/A
7:30 PM45 °FScattered clouds.10 mph81%29.65 "HgN/A
7:00 PM46 °FBroken clouds.13 mph76%29.65 "HgN/A
6:30 PM46 °FBroken clouds.15 mph76%29.65 "HgN/A
6:00 PM46 °FBroken clouds.15 mph76%29.65 "HgN/A
5:30 PM45 °FBroken clouds.17 mph81%29.65 "HgN/A
5:00 PM43 °FSprinkles. Broken clouds.22 mph87%29.65 "HgN/A
4:30 PM50 °FBroken clouds.20 mph62%29.62 "HgN/A
4:00 PM50 °FPartly sunny.22 mph58%29.62 "HgN/A
3:30 PM50 °FPartly sunny.26 mph58%29.62 "HgN/A
3:00 PM50 °FPartly sunny.22 mph62%29.65 "HgN/A
2:30 PM46 °FSprinkles. Mostly cloudy.20 mph71%29.68 "HgN/A
2:00 PM46 °FMostly cloudy.15 mph76%29.68 "HgN/A
1:30 PM43 °FPartly sunny.13 mph87%29.71 "HgN/A
1:00 PM41 °FSprinkles. Fog.10 mph93%29.71 "Hg2 mi
12:30 PM41 °FSprinkles. Broken clouds.15 mph87%29.74 "HgN/A
12:02 PM41 °FSprinkles. Fog.17 mph87%29.74 "Hg2 mi
11:30 AM43 °FSprinkles. Broken clouds.17 mph81%29.74 "Hg1 mi
11:00 AM45 °FSprinkles. More clouds than sun.20 mph71%29.74 "HgN/A
10:30 AM43 °FSprinkles. More clouds than sun.15 mph81%29.74 "HgN/A
10:00 AM45 °FSprinkles. More clouds than sun.20 mph66%29.77 "HgN/A
9:30 AM46 °FBroken clouds.15 mph62%29.77 "HgN/A
9:00 AM45 °FBroken clouds.13 mph66%29.77 "HgN/A
8:30 AM45 °FBroken clouds.17 mph66%29.80 "HgN/A
8:00 AM45 °FBroken clouds.17 mph66%29.80 "HgN/A
Weather by CustomWeather, © 2015

See weather overviewHow to use our weather pages